Regional Weather Roundup
Issued by NWS

Home | Current Version | Previous Version | Graphics & Text | Print | Product List | Glossary On
Versions: 1 2 3 4 5 6 7 8 9 10 11 12 13 14 15 16 17 18 19 20 21 22 23 24 25 26 27 28 29 30 31 32 33 34 35 36 37 38 39 40 41 42 43 44 45 46 47 48
000
ASUS45 KTFX 311110
RWRMT
MONTANA REGIONAL WEATHER ROUNDUP
NATIONAL WEATHER SERVICE GREAT FALLS MT
500 AM MDT FRI JUL 31 2015

NOTE: "FAIR" INDICATES FEW OR NO CLOUDS BELOW 12000 FEET WITH NO
SIGNIFICANT WEATHER AND/OR OBSTRUCTIONS TO VISIBILITY.

MTZ001>007-043-311200-
WEST OF THE DIVIDE

CITY           SKY/WX    TMP DP  RH WIND       PRES   REMARKS
KALISPELL      SUNNY     48  40  73 CALM      30.18R
MISSOULA       CLEAR     53  42  66 CALM      30.24R
BUTTE          CLEAR     49  39  68 SE7       30.37R
MULLAN PASS    CLEAR     67  28  23 S3        30.35F
DEER LODGE       N/A     46  39  76 W5        30.34S
EUREKA           N/A     50  37  62 CALM      30.18S
HAMILTON         N/A     57  41  54 SE7       30.24R
LIBBY            N/A     48  36  61 CALM      30.19R
PLAINS           N/A     51  37  58 CALM      30.18R
RONAN            N/A     49  42  76 CALM      30.21S
THOMPSON FALLS   N/A     48  33  56 CALM      30.21S
$$

MTZ008-052>055-311200-
SOUTHWEST MONTANA

CITY           SKY/WX    TMP DP  RH WIND       PRES   REMARKS
BOZEMAN        CLEAR     51  44  77 CALM      30.29R
DILLON         CLEAR     53  40  61 SW10      30.32S
THREE FORKS      N/A     49  29  46 CALM      30.24R
TWIN BRIDGES     N/A     53  42  66 E5        30.27R
$$

MTZ009-010-012-014-046-048-049-054-311200-
EAST SLOPES AND CENTRAL MONTANA

CITY           SKY/WX    TMP DP  RH WIND       PRES   REMARKS
CUT BANK       CLEAR     53  38  56 W12       30.20S
GREAT FALLS    CLEAR     52  41  66 W7        30.19S
MALMSTROM AFB  CLEAR     59  44  57 SW5       30.18S
HELENA         CLEAR     60  40  47 NE3       30.24S
CONRAD           N/A     48  45  90 N2        30.19S
$$

MTZ011-013-016-021-045-047-050-051-311200-
NORTH CENTRAL MONTANA

CITY           SKY/WX    TMP DP  RH WIND       PRES   REMARKS
HAVRE          CLEAR     54  49  83 CALM      30.13S
LEWISTOWN      CLEAR     55  42  61 S6        30.24S
CHINOOK          N/A     57  52  82 E8        30.13F
$$

MTZ017>020-022>027-061-062-311200-
NORTHEAST MONTANA

CITY           SKY/WX    TMP DP  RH WIND       PRES   REMARKS
GLASGOW        CLEAR     59  48  67 E10       30.16F
JORDAN           N/A     50  45  83 CALM      30.18S
SIDNEY         CLEAR     52  46  82 CALM      30.17S
WOLF POINT     CLEAR     51  48  89 CALM      30.17S
MALTA            N/A     54  48  80 CALM      30.12F
PLENTYWOOD       N/A     61  48  63 CALM      30.17R
POPLAR           N/A     54  52  94 SW3       30.17S
SCOBEY           N/A     50  45  83 N1        30.16S
$$

MTZ028>42-056>058-311200-
SOUTHCENTRAL AND SOUTHEAST MONTANA

CITY           SKY/WX    TMP DP  RH WIND       PRES   REMARKS
BAKER          CLEAR     56  47  71 VRB3      30.22F
BILLINGS       CLEAR     61  41  47 CALM      30.24R
LIVINGSTON     CLEAR     47  40  76 CALM      30.30S
MILES CITY     CLEAR     63  44  50 SE5       30.19F
EKALAKA          N/A     53  41  64 SE2       30.21F
FORSYTH          N/A     61  48  63 N6        30.19F
LAUREL           N/A     57  38  49 N2        30.20R
ROUNDUP          N/A     57  40  53 CALM      30.13S
$$

REGIONAL REPORTS...DAKOTAS

CITY           SKY/WX    TMP DP  RH WIND       PRES   REMARKS
WILLISTON      CLEAR     54  50  86 SW3       30.16S
MINOT          CLEAR     56  49  77 SW9       30.13S
DICKINSON      CLEAR     52  46  80 S10       30.18S
BEACH          FAIR      50  48  93 S7        30.21S
CROSBY           N/A     46  46 100 CALM      30.16S
BISMARCK       CLEAR     55  51  86 SW3       30.18S
GRAND FORKS    CLEAR     58  52  80 W8        30.03S
FARGO          CLEAR     56  51  84 W9        30.07S
BUFFALO SD       N/A     65  46  50 N3        30.17S
RAPID CITY     CLEAR     61  48  62 NW13      30.21F
$$

REGIONAL REPORTS...WYOMING/IDAHO/WASHINGTON

CITY           SKY/WX    TMP DP  RH WIND       PRES   REMARKS
GILLETTE       CLEAR     62  42  47 SE9       30.27S
SHERIDAN       CLEAR     51  43  74 CALM      30.25S
BUFFALO WY     CLEAR     62  35  36 W9        30.31F
CODY           CLEAR     61  36  39 SW5       30.31S
YELLOWSTONE LA   N/A     37  33  85 CALM      30.53F
IDAHO FALLS    CLEAR     47  42  83 N5        30.29S
SALMON         CLEAR     52  45  76 CALM      30.29R
BOISE          CLEAR     67  36  31 SE5       30.13S
SPOKANE        PTCLDY    67  33  28 CALM      30.10S
$$

REGIONAL REPORTS...ALBERTA

CITY           SKY/WX    TMP DP  RH WIND       PRES   REMARKS
EDMONTON       CLEAR     55  48  76 S5        30.13F
CALGARY        CLEAR     57  41  54 E2        30.20F
LETHBRIDGE     CLEAR     46  45  93 SW8       30.15S
MEDICINE HAT   PTCLDY    55  45  67 NE5       30.13F
WATERTON GATE    N/A     50  39  66 SW6         N/A
MILK RIVER       N/A     54  43  66 W6          N/A
ONEFOUR          N/A     55  48  76 NE12        N/A
$$

REGIONAL REPORTS...SASKATCHEWAN

CITY           SKY/WX    TMP DP  RH WIND       PRES   REMARKS
SWIFT CURRENT  CLEAR     55  48  76 E6        30.19R
REGINA         CLEAR     48  48 100 NW6       30.15S
SASKATOON      PTCLDY    46  45  93 W8        30.15R
CYPRESS HILLS    N/A     59  41  51 SE7         N/A
VAL MARIE        N/A     48  46  93 NE5         N/A
ROCKGLEN         N/A     55  50  82 N5          N/A
$$



USA.gov is the U.S. government's official web portal to all federal, state and local government web resources and services.